Regional Weather Roundup
Issued by NWS

Home | Current Version | Previous Version | Text Only | Print | Product List | Glossary On
Versions: 1 2 3 4 5 6 7 8 9 10 11 12 13 14 15 16 17 18 19 20 21 22 23 24 25 26 27 28 29 30 31 32 33 34 35 36 37 38 39 40 41 42 43 44 45 46 47
000
ASUS45 KCYS 251610
RWRWY

WYOMING REGIONAL WEATHER ROUNDUP
NATIONAL WEATHER SERVICE CHEYENNE WY
900 AM MST THU DEC 25 2014

NOTE:  "FAIR" INDICATES FEW OR NO CLOUDS BELOW 12,000 FEET
WITH NO SIGNIFICANT WEATHER AND/OR OBSTRUCTIONS TO VISIBILITY.

WYZ001-251700-
YELLOWSTONE NATIONAL PARK

CITY           SKY/WX    TMP DP  RH WIND       PRES   REMARKS
LK YELLOWSTONE   N/A     16  10  77 VRB6      29.56R WCI   7
W YELLOWSTONE  NOT AVBL

$$
WYZ002>013-054>058-071-098>099-251700-
NORTHERN WYOMING

CITY           SKY/WX    TMP DP  RH WIND       PRES   REMARKS
JACKSON        LGT SNOW  25  25 100 N23         N/A  VSB 3/4 WCI  10
CODY           CLOUDY    23  19  86 N18G29    29.68R WCI   9
GREYBULL       CLOUDY    29  22  75 NW23      29.61R WCI  15
WORLAND        SNOW      28  26  92 N17       29.60R VSB 1/4 WCI  16
SHERIDAN       LGT SNOW  27  24  89 NW10      29.76R FOG     WCI  17
BUFFALO        LGT SNOW  24  22  91 N24G35    29.70R FOG     WCI   8
GILLETTE       LGT SNOW  26  23  88 N20       29.68R VSB 3/4 WCI  12
HULETT           N/A    N/A N/A N/A MISG        N/A
NEWCASTLE      LGT SNOW  32  27  80 CALM      29.60R

$$
WYZ014>020-022>026-101>103-251700-
CENTRAL WYOMING

CITY           SKY/WX    TMP DP  RH WIND       PRES   REMARKS
BIG PINEY      FLURRIES  24  20  84 NE5       29.41R WCI  18
PINEDALE       SNOW      27  27 100 E10       29.42R VSB 1/4 WCI  17
DUBOIS         NOT AVBL
LANDER         SNOW      24  22  91 NE7       29.56R VSB 1/4 WCI  16
RIVERTON       SNOW      24  21  88 N18G25    29.57R VSB 1/2 WCI  10
CASPER         SNOW      25  22  88 N15       29.58R VSB 1/2 WCI  13
DOUGLAS        LGT SNOW  29  26  89 NW8       29.56R VSB 1   WCI  21

$$
WYZ021-027>030-104>119-251700-
SOUTHERN WYOMING

CITY           SKY/WX    TMP DP  RH WIND       PRES   REMARKS
EVANSTON       LGT SNOW  20  18  92 SW15      29.48R FOG     WCI   6
FORT BRIDGER   CLOUDY    24  20  86 W23G29    29.48R WCI   8
ROCK SPRINGS   LGT SNOW  24  22  91 S6        29.45R VSB 1   WCI  17
DIXON          LGT SNOW  30  26  86 W5        29.50S WCI  25
RAWLINS        LGT SNOW  28  22  78 SW5       29.47R WCI  23
SARATOGA       CLOUDY    30  25  80 N3        29.47R
LARAMIE        LGT SNOW  31  23  72 SW10      29.46R WCI  22
CHEYENNE       LGT SNOW  31  28  89 NE6       29.48R VSB 3/4 WCI  25
TORRINGTON     SNOW      29  26  89 NE10G21   29.55R VSB 1/2 WCI  20
PINE BLUFFS    CLOUDY    32  30  93 N10G17    29.50R WCI  24

$$


USA.gov is the U.S. government's official web portal to all federal, state and local government web resources and services.